Theta_e
320 320 320 321 322 323 324 325 325 325 325 326 324 324 324 324 321 310 299 308 314 327 319 305 305 304 304 303 302 298 289 286 289 290 293 296 297 298 298 298 299 300 300 300 304
319 319 319 320 321 322 323 324 324 325 325 325 324 323 323 323 309 302 317 328 331 327 304 301 300 301 299 301 300 293 288 289 292 293 294 296 296 297 297 297 297 298 299 299 298
319 318 318 319 320 321 322 323 324 324 325 325 324 324 323 318 299 297 327 327 330 319 305 304 303 301 297 298 298 295 290 291 294 295 296 296 296 297 296 295 297 297 295 296 296
319 318 318 318 319 320 321 322 323 324 324 324 324 323 322 306 289 305 327 326 328 308 305 302 300 296 294 293 297 292 295 295 298 297 296 295 297 296 296 296 295 295 295 294 294
320 319 319 318 318 319 320 321 322 323 324 324 324 323 306 300 302 314 326 323 308 305 301 300 296 296 292 293 294 294 294 296 297 296 296 296 295 295 292 294 295 295 294 293 293
320 319 319 318 319 319 320 321 322 323 323 324 324 321 301 296 311 316 312 307 305 302 300 300 298 298 294 293 293 293 293 294 295 295 295 294 293 295 293 294 293 293 291 291 291
321 320 319 319 319 319 320 320 321 322 323 324 322 312 300 302 313 313 309 305 305 303 300 301 300 298 296 293 295 294 291 292 293 293 293 294 291 291 292 293 291 290 290 290 290
321 320 319 319 319 319 320 320 321 322 323 323 321 305 299 305 311 312 307 304 304 304 303 302 301 298 296 295 292 290 289 288 292 292 292 293 289 291 292 292 289 289 288 289 289
320 319 320 320 319 319 319 320 321 322 322 320 306 300 298 309 303 307 305 303 302 301 302 303 300 295 295 289 287 287 285 285 289 292 292 291 290 290 292 290 288 287 287 288 288
320 320 320 320 319 319 319 321 321 315 314 314 309 298 301 299 301 303 302 303 300 299 298 297 292 290 287 287 283 284 283 284 286 290 290 289 289 288 289 288 286 286 286 286 287
320 320 320 320 320 319 317 312 304 300 305 299 299 298 298 300 302 300 302 300 298 295 291 291 288 287 289 289 288 287 285 285 287 290 290 289 288 286 288 287 286 285 285 286 286
320 320 320 320 320 320 315 308 305 302 297 303 303 301 302 301 296 298 302 296 294 289 289 287 285 291 291 289 288 286 284 285 287 290 289 288 288 286 287 286 286 285 285 285 285
320 320 320 320 319 317 310 309 307 304 297 301 302 301 302 300 297 296 299 296 292 288 288 286 289 291 290 287 287 285 284 284 286 288 288 286 285 284 285 285 286 286 286 285 285
321 320 320 320 314 313 309 315 309 306 291 293 298 301 298 299 294 299 300 297 292 289 288 287 290 290 288 286 288 283 288 287 286 285 282 286 281 282 283 283 284 284 284 284 284
320 320 320 319 313 309 312 317 311 306 282 294 295 299 298 297 295 294 298 296 290 290 290 288 288 288 287 289 289 288 289 287 286 284 282 282 281 282 283 281 282 283 283 284 283
319 319 319 317 315 312 311 312 311 291 282 291 292 291 293 292 292 293 294 296 295 290 289 289 291 290 290 290 290 289 287 286 283 282 277 283 284 281 280 284 283 283 283 284 283
319 318 317 318 311 310 315 311 293 284 295 290 288 290 290 288 288 290 289 288 288 284 284 286 287 288 290 287 287 287 286 281 277 276 277 281 280 285 285 286 286 284 283 284 283
318 317 316 319 313 313 311 300 284 290 291 290 288 287 288 288 287 288 287 285 289 288 284 283 283 287 288 290 287 285 287 281 274 274 277 281 278 284 284 286 288 286 285 283 282
317 316 315 317 312 313 304 291 289 292 294 289 289 285 285 288 289 285 284 285 289 289 288 284 284 287 287 288 291 284 283 288 280 271 274 279 282 283 283 283 284 283 283 282 282
312 311 311 319 313 309 299 294 294 297 296 294 290 290 284 285 286 285 283 287 288 291 293 289 283 285 287 288 287 286 289 283 282 275 271 277 279 282 280 279 282 282 282 282 282
310 304 310 316 313 303 293 294 298 300 301 294 294 292 289 286 288 285 287 288 288 288 293 290 288 282 286 284 284 284 283 284 285 283 276 272 277 284 283 283 281 283 283 283 282
306 297 309 314 300 297 296 297 298 297 300 299 297 296 293 290 287 288 287 289 291 290 288 290 287 280 282 287 288 286 284 285 282 277 278 277 279 284 284 285 284 284 284 283 283
301 301 307 309 293 293 292 293 296 296 298 297 296 297 297 292 287 289 288 293 293 290 289 291 286 281 282 284 284 284 284 284 284 283 277 279 279 284 284 284 285 283 284 283 282
296 293 298 299 300 296 292 291 291 297 297 298 296 297 294 292 294 291 291 293 294 294 296 295 286 283 281 281 283 281 283 283 284 281 279 282 278 281 282 283 284 284 284 283 283
294 291 293 289 293 295 294 291 290 290 297 296 293 292 292 286 288 287 291 288 291 295 293 292 285 285 280 282 282 278 280 282 281 283 283 281 281 283 285 284 285 285 284 283 282
289 289 292 289 290 293 294 291 290 292 294 292 290 291 292 286 288 285 288 288 288 288 290 291 284 284 282 284 285 281 283 282 282 283 281 281 282 286 287 285 285 285 284 282 283
293 293 290 288 286 286 290 292 291 294 295 293 293 291 290 291 294 293 293 293 292 288 287 286 284 283 279 279 279 279 281 283 283 282 285 280 285 282 282 285 286 285 284 284 283
Wind_Speed
5 5 5 6 6 7 8 9 10 10 10 11 13 12 11 12 10 0 3 1 1 6 3 2 5 4 5 4 4 3 5 2 4 6 3 0 2 1 2 2 4 3 5 5 9
3 4 4 5 6 7 7 8 8 10 11 12 12 11 11 10 2 2 3 1 2 4 3 3 2 3 4 2 3 5 4 6 4 4 3 1 2 1 2 5 2 2 5 11 10
1 2 3 4 5 6 7 8 9 9 11 11 12 12 12 5 3 1 3 2 4 2 3 3 4 3 4 2 3 2 5 3 2 4 2 1 3 1 2 1 2 3 3 10 12
2 2 1 2 4 6 7 8 9 10 11 11 11 13 13 2 1 1 1 4 5 6 4 4 4 4 3 1 1 1 2 3 2 0 2 2 1 2 2 2 6 8 6 5 12
4 3 3 3 4 5 7 8 9 10 10 11 11 11 4 5 7 2 5 6 4 3 4 4 3 4 3 3 3 3 2 3 3 4 4 1 5 0 4 7 7 10 12 12 10
7 6 5 4 3 4 6 8 9 9 10 12 11 9 2 3 2 5 6 5 4 4 3 4 6 4 4 3 3 3 2 5 5 3 4 4 2 5 2 6 10 11 11 10 11
7 7 7 6 5 5 5 6 8 9 10 11 7 2 2 12 3 4 4 2 4 4 5 2 6 4 5 2 0 2 4 6 3 1 5 6 5 4 4 7 10 10 9 10 11
8 8 7 7 6 6 6 7 8 8 9 6 1 1 7 1 3 4 3 3 3 3 4 4 4 5 2 4 6 1 4 3 2 3 1 4 3 1 6 5 7 7 7 9 11
9 8 8 8 7 6 7 9 9 6 1 1 1 2 8 3 2 3 4 6 5 3 5 4 5 4 4 6 4 5 4 4 8 1 2 2 3 4 5 7 7 6 7 8 9
9 8 8 7 8 7 8 7 5 1 2 1 1 3 3 4 3 4 2 6 4 5 4 5 6 4 3 4 7 7 5 4 5 3 3 2 3 4 6 7 7 6 6 8 9
10 9 8 6 7 5 5 2 3 2 2 9 7 4 2 1 1 2 2 4 4 5 6 1 4 11 15 11 4 6 5 5 4 3 4 7 5 3 4 6 6 6 7 8 8
11 10 9 8 5 2 1 2 3 3 8 9 5 6 5 5 3 4 6 6 5 6 6 4 10 11 5 6 5 4 4 6 5 4 3 5 6 1 1 2 4 7 7 7 5
10 10 11 9 8 3 4 5 0 1 4 7 8 8 8 10 9 11 12 6 5 7 10 10 6 6 8 6 7 6 7 6 8 1 3 1 4 5 2 3 5 4 4 4 5
11 11 11 10 4 4 5 7 5 1 4 7 7 7 4 8 6 3 8 7 4 12 8 8 5 6 5 5 9 6 9 6 5 4 6 1 7 5 6 6 6 6 6 5 5
13 12 11 17 5 5 4 7 6 3 6 3 2 1 3 6 6 3 1 2 8 8 7 8 8 7 7 8 7 3 6 7 3 3 1 2 3 2 6 9 11 11 9 8 6
14 13 13 10 3 1 6 8 5 5 12 3 2 4 5 1 2 3 3 4 3 5 2 4 1 6 9 3 7 10 7 6 4 3 5 12 11 5 9 9 13 12 10 11 9
16 14 11 7 4 10 9 5 5 6 3 5 5 5 2 5 2 3 6 7 8 6 7 1 5 3 5 7 3 3 7 1 2 1 8 2 5 9 6 8 18 20 15 12 9
14 14 9 7 10 13 4 4 8 8 8 4 4 2 8 7 5 6 7 6 7 3 4 7 6 11 7 11 9 9 9 8 8 6 3 2 8 7 1 1 12 16 15 12 10
13 5 5 6 13 11 6 10 8 7 7 11 3 4 4 4 6 5 8 7 10 13 12 8 7 2 3 3 11 7 9 5 7 2 3 6 5 2 3 5 13 16 14 14 12
3 5 10 12 16 7 9 19 9 8 5 4 14 12 11 9 10 9 11 7 7 15 3 5 3 2 3 3 2 6 9 5 0 4 5 3 4 7 8 10 14 18 19 16 13
5 4 2 18 11 6 10 8 7 8 9 7 12 7 7 9 12 9 9 3 8 8 11 7 5 1 5 7 10 4 4 2 4 5 6 2 7 4 9 17 20 20 18 16 14
4 6 4 11 10 3 14 6 4 4 10 12 4 14 15 12 10 15 16 6 9 11 13 7 4 5 7 1 0 1 7 7 7 5 2 3 7 1 4 13 16 17 16 13 14
4 4 2 4 9 11 4 4 4 6 7 8 9 8 4 10 8 13 8 2 7 9 16 11 5 4 1 2 2 6 6 3 3 2 9 6 6 3 4 9 14 19 16 14 14
5 5 3 2 2 10 11 7 7 8 6 5 1 3 3 7 7 7 6 3 2 4 5 5 6 8 10 5 4 7 6 6 6 6 6 14 3 4 4 10 12 14 13 15 16
2 1 3 5 8 9 11 12 9 8 11 10 5 7 4 6 4 5 6 3 1 8 3 5 6 5 2 3 3 4 4 8 10 8 11 6 11 7 12 14 19 20 13 14 15
3 3 2 3 2 7 18 13 15 11 9 5 9 14 14 7 8 8 7 4 4 1 4 4 3 4 4 3 3 4 8 8 7 5 5 2 15 8 3 7 10 17 19 19 18
1 2 2 2 2 1 4 9 13 17 6 4 10 9 16 20 6 4 3 6 7 9 7 7 6 6 4 2 3 7 17 17 9 7 13 13 13 8 8 16 19 18 18 19 16
Wind_Direction
76 58 45 37 27 22 17 12 6 2 0 357 350 343 336 334 323 191 266 213 148 152 102 114 46 31 44 70 62 118 64 163 208 168 204 305 79 342 341 12 3 33 79 356 334
72 56 43 34 22 10 9 7 3 356 353 353 348 338 330 336 355 292 292 82 124 155 83 102 78 47 47 59 32 83 106 213 193 200 198 285 165 220 122 351 26 39 66 22 24
57 71 40 23 11 4 359 358 356 352 352 349 343 332 324 323 347 310 332 170 134 99 91 89 95 74 66 27 20 147 175 201 233 228 211 224 298 136 126 62 82 296 27 19 27
300 328 22 12 4 354 350 350 349 347 348 344 342 333 325 298 298 182 30 145 139 113 90 94 53 65 87 124 61 56 238 198 274 209 157 231 275 332 97 108 82 79 70 48 34
277 282 306 334 344 346 343 341 341 341 338 341 340 340 9 21 256 156 107 115 98 101 123 126 114 126 162 163 127 159 256 176 263 277 255 31 247 326 35 94 80 72 55 43 35
279 281 286 296 310 330 335 334 334 332 332 333 335 327 81 269 134 145 133 125 127 115 123 133 166 176 118 146 165 187 266 278 273 244 229 195 73 131 176 111 66 61 56 46 39
267 277 283 283 292 304 314 319 321 319 320 320 329 13 103 239 121 146 143 114 153 140 144 187 140 120 128 130 171 120 310 319 251 249 221 140 62 46 70 87 67 54 51 46 34
261 271 272 279 286 296 304 307 304 309 308 300 350 48 242 90 140 140 132 70 91 75 99 127 123 101 81 112 25 50 51 349 269 157 342 163 187 51 336 111 74 60 46 47 36
254 259 267 276 281 289 297 296 300 304 127 118 49 116 261 124 166 192 154 148 108 65 53 85 68 97 50 101 20 1 238 217 315 217 117 186 177 8 348 96 91 65 53 49 37
244 253 262 268 280 294 298 293 301 356 81 119 28 11 241 225 150 124 33 124 122 113 66 63 59 96 61 115 219 194 215 239 235 203 157 189 224 62 43 92 102 89 68 56 50
234 236 247 260 272 291 332 10 349 286 275 192 190 219 147 55 128 122 154 90 96 81 156 52 127 205 199 198 142 143 180 208 236 233 171 223 247 74 113 104 113 101 89 71 52
229 222 227 219 226 227 337 262 212 185 299 238 229 272 241 174 135 199 136 146 159 170 115 71 225 218 138 159 156 146 162 238 286 230 173 257 234 79 78 113 150 136 116 103 92
222 226 222 196 170 165 206 225 223 107 266 272 194 195 201 156 210 190 160 148 162 147 194 178 207 159 144 146 166 205 190 207 225 37 227 325 243 203 69 107 113 101 118 105 105
213 218 219 149 155 151 225 210 187 101 297 252 221 257 135 141 235 187 177 149 192 196 165 232 221 138 165 180 167 214 203 179 183 131 237 177 282 230 175 170 174 162 158 139 106
208 209 194 162 143 172 260 139 122 49 269 320 124 331 146 168 135 345 166 80 176 174 145 233 162 180 186 194 155 240 146 177 148 183 75 208 289 224 133 209 194 187 175 161 146
216 207 195 203 184 167 114 121 74 123 231 259 123 163 126 103 76 109 133 60 132 125 285 234 81 157 190 109 152 152 83 60 53 105 257 195 197 215 196 198 173 184 179 169 161
210 206 198 154 202 145 156 169 196 203 293 202 191 180 155 153 155 145 162 176 167 137 220 186 207 185 140 93 59 136 125 165 306 231 233 139 192 250 192 179 175 175 177 173 165
204 207 215 200 135 144 163 226 204 203 212 93 117 96 180 158 199 173 144 191 243 144 126 172 272 172 191 188 171 190 172 164 205 204 233 63 224 253 11 187 166 166 167 159 163
202 203 221 184 156 157 186 219 212 191 195 145 127 166 236 213 170 142 202 206 207 184 188 170 264 164 168 156 149 193 207 153 105 30 54 209 279 248 94 117 150 161 161 173 175
201 216 227 156 155 179 224 232 222 176 152 174 213 183 186 189 172 187 182 198 209 189 207 206 299 191 173 120 51 170 159 133 65 204 242 248 259 241 197 181 172 176 179 180 178
214 222 182 148 151 204 227 232 231 185 183 176 210 247 206 186 192 194 212 221 200 181 187 141 181 192 126 208 177 160 198 187 145 171 175 229 248 199 196 182 185 184 184 182 176
166 216 172 153 194 195 229 200 148 208 204 235 241 214 211 181 200 207 213 227 164 148 178 186 134 184 200 231 290 226 184 181 188 209 236 139 257 43 240 176 176 182 182 181 183
214 192 231 219 214 205 163 211 221 188 187 196 219 217 150 204 220 208 195 163 172 160 162 173 173 156 248 324 310 215 186 172 101 82 190 157 256 12 96 152 176 176 183 182 178
302 168 209 227 158 223 201 204 205 202 232 177 315 142 152 204 210 218 168 176 210 165 144 99 154 191 210 164 134 178 179 178 170 203 181 229 193 213 188 168 175 189 187 186 189
100 2 348 197 230 204 174 171 189 201 215 165 180 201 206 204 175 209 157 133 335 157 89 116 205 180 170 131 107 163 160 179 200 214 202 221 217 203 193 191 194 196 183 180 187
195 160 179 268 351 252 216 193 199 207 192 199 211 202 191 191 215 189 150 174 175 56 116 143 173 145 197 166 207 248 219 192 202 211 268 237 258 176 176 117 177 192 183 192 193
97 26 106 172 263 258 238 213 221 200 211 140 216 179 204 212 182 121 129 177 164 161 175 170 150 152 199 142 112 281 221 202 187 188 189 208 224 171 190 190 195 194 187 189 182